Flag for U.S.A. Weather past 2 weeks in Miami, Florida, U.S.A.

Now
94 °F

Passing clouds.


Feels Like: 98 °F
Forecast: 77 / 94 °F
Wind: 14 mph from West

Location: Miami International Airport

Current Time: Apr 26, 2015 at 6:04:59 PM

Latest Report: Apr 26, 2015 at 4:53 PM


Visibility: 10 mi

Pressure: 29.77 "Hg

Humidity: 43%

Dew point: 68 °F

Location of MiamiLocation

Historic Weather in Miami — Graph

°F

Miami temperature yesterday

Maximum temperature yesterday: 89 °F (at 6:53 PM)
Minimum temperature yesterday: 77 °F (at 3:53 AM)
Average temperature yesterday: 82 °F

Past Weeks' High & Low Weather Summary

 TemperatureHumidityPressure
High96 °F (Apr 26, 1:53 PM)94% (Apr 23, 5:53 PM)30.17 "Hg (Apr 23, 5:53 PM)
Low75 °F (Apr 21, 8:53 AM)41% (Apr 26, 1:53 PM)29.77 "Hg (Apr 26, 4:53 PM)
Average81 °F71%30.00 "Hg
* Reported Apr 11 4:53 PM — Apr 26 4:53 PM, Miami, Weather by CustomWeather, © 2015

Note: Actual official high and low records may vary slightly from our data, if they occured in-between our weather recording intervals... More about our weather records

Advertising

Miami weather history for previous 24 hours

 ConditionsComfort  
Time TempWeatherWind HumidityBarometerVisibility
4:53 PM
Sun, Apr 26
94 °FPassing clouds.14 mph43%29.77 "Hg10 mi
3:53 PM95 °FPassing clouds.15 mph43%29.78 "Hg10 mi
2:53 PM96 °FScattered clouds.20 mph43%29.78 "Hg10 mi
1:53 PM96 °FPassing clouds.17 mph41%29.80 "Hg10 mi
12:53 PM94 °FPassing clouds.16 mph44%29.81 "Hg10 mi
11:53 AM92 °FSunny.17 mph47%29.83 "Hg10 mi
10:53 AM90 °FSunny.14 mph48%29.84 "Hg10 mi
9:53 AM86 °FSunny.12 mph65%29.85 "Hg10 mi
8:53 AM82 °FSunny.10 mph77%29.85 "Hg10 mi
7:53 AM79 °FSunny.10 mph82%29.83 "Hg9 mi
6:53 AM76 °FPassing clouds.5 mph88%29.83 "Hg9 mi
5:53 AM76 °FClear.5 mph88%29.83 "Hg10 mi
4:53 AM77 °FPassing clouds.6 mph85%29.84 "Hg10 mi
3:53 AM77 °FClear.3 mph85%29.84 "Hg10 mi
2:53 AM77 °FClear.3 mph85%29.85 "Hg10 mi
1:53 AM78 °FClear.3 mph82%29.88 "Hg10 mi
12:53 AM79 °FPassing clouds.6 mph82%29.90 "Hg10 mi
11:53 PM
Sat, Apr 25
79 °FPassing clouds.8 mph82%29.90 "Hg10 mi
10:53 PM81 °FClear.7 mph74%29.90 "Hg10 mi
9:53 PM82 °FClear.6 mph65%29.89 "Hg10 mi
8:53 PM84 °FPassing clouds.8 mph59%29.88 "Hg10 mi
7:53 PM86 °FPassing clouds.9 mph55%29.86 "Hg10 mi
6:53 PM89 °FPassing clouds.10 mph50%29.84 "Hg10 mi
Weather by CustomWeather, © 2015

See weather overviewHow to use our weather pages